軌道要素
Epoch 2015 Sept. 15.0 TT = JDT 2457280.5
T 2015 Sept. 10.33774 TT MPCW
q 1.8191288 (2000.0) P Q
n 0.04887236 Peri. 244.40746 +0.84677490 -0.33281877
a 7.4090156 Node 228.24510 +0.03729502 -0.74103568
e 0.7544709 Incl. 146.20205 -0.53064239 -0.58317904
P 20.2
From 54 observations 2015 Aug. 24-Nov. 9, mean residual 0".5.
|